Tracking 26951 objects as of 4-Feb-2023
HD Live streaming from Space Station
objects crossing your sky now

STARLINK-3873

Track STARLINK-3873 now!
10-day predictions
STARLINK-3873 is classified as:


NORAD ID: 52467
Int'l Code: 2022-049S
Perigee: 546.1 km
Apogee: 547.7 km
Inclination: 53.2 °
Period: 95.4 minutes
Semi major axis: 6917 km
RCS: Unknown
Launch date: May 6, 2022
Source: United States (US)
Launch site: AIR FORCE EASTERN TEST RANGE (AFETR)
Your satellite tracking list
Your tracking list is empty




NASA's NSSDC Master Catalog

Two Line Element Set (TLE):
1 52467U 22049S   23034.54314388  .00001307  00000-0  10020-3 0  9996
2 52467  53.2164  92.5507 0001160  88.8070 271.3055 15.08841749 41638
Source of the keplerian elements: AFSPC